GW2974 Weather Reports


time (UTC)temp
C
wind
direction
speed
KPH
gust
KPH
rain 1hr
cm
rain 24hr
cm
rain mn
cm
humidity
%
barometer
mb
20260504214536 27 273 3.2 12.9 0.00 0.00 0.00 53 1014.1
20260504213045 28 332 4.8 12.9 0.00 0.00 0.00 54 1014.1
20260504211539 28 327 3.2 14.5 0.00 0.00 0.00 52 1014.1
20260504210033 28 27 3.2 14.5 0.00 0.00 0.00 54 1014.1
20260504204539 28 338 3.2 20.9 0.00 0.00 0.00 51 1014.2
20260504203035 28 67 3.2 16.1 0.00 0.00 0.00 53 1014.2
20260504201535 28 5 4.8 17.7 0.00 0.00 0.00 52 1014.4
20260504200033 28 311 4.8 14.5 0.00 0.00 0.00 51 1014.6
20260504194532 28 352 4.8 14.5 0.00 0.00 0.00 51 1014.7
20260504193043 28 320 3.2 14.5 0.00 0.00 0.00 49 1014.9
20260504191536 28 136 4.8 17.7 0.00 0.00 0.00 43 1015.1
20260504190040 28 127 3.2 14.5 0.00 0.00 0.00 44 1015.2
20260504184535 27 75 6.4 12.9 0.00 0.00 0.00 45 1015.4
20260504183041 27 145 4.8 16.1 0.00 0.00 0.00 46 1015.6
20260504181536 28 96 3.2 12.9 0.00 0.00 0.00 43 1015.8
20260504180058 27 178 6.4 17.7 0.00 0.00 0.00 43 1016.2
20260504174532 27 169 4.8 14.5 0.00 0.00 0.00 44 1016.5
20260504173032 27 166 4.8 14.5 0.00 0.00 0.00 45 1016.5
20260504171533 27 172 6.4 19.3 0.00 0.00 0.00 47 1016.7
20260504081534 19 0 0.0 8.0 0.00 0.00 0.00 78 1016.1
20260504044538 21 340 0.0 9.7 0.00 0.00 0.00 74 1017.2
20260504043043 21 0 0.0 9.7 0.00 0.00 0.00 74 1017.2
20260504041534 21 103 1.6 6.4 0.00 0.00 0.00 74 1017.3
20260504040035 21 0 0.0 0.0 0.00 0.00 0.00 72 1017.6
20260504034534 21 0 0.0 3.2 0.00 0.00 0.00 71 1017.7
20260504033039 21 34 1.6 6.4 0.00 0.00 0.00 69 1017.7
20260504031538 22 64 0.0 8.0 0.00 0.00 0.00 68 1017.6
20260504030043 22 13 1.6 9.7 0.00 0.00 0.00 67 1017.5
20260504024532 22 10 1.6 9.7 0.00 0.00 0.00 67 1017.5
20260504023035 22 36 3.2 12.9 0.00 0.00 0.00 67 1017.3
20260504021535 22 64 4.8 16.1 0.00 0.00 0.00 66 1017.1
20260504020040 22 49 3.2 9.7 0.00 0.00 0.00 67 1017.0
20260504014538 22 19 3.2 9.7 0.00 0.05 0.00 67 1016.7
20260504013036 22 40 3.2 17.7 0.00 0.05 0.00 67 1016.4
20260504011536 22 0 1.6 9.7 0.00 0.05 0.00 70 1016.2
20260504010032 22 0 0.0 8.0 0.00 0.05 0.00 70 1016.1
20260504004535 22 41 0.0 8.0 0.00 0.05 0.00 69 1016.0
20260504003031 22 342 1.6 12.9 0.00 0.05 0.00 68 1015.8
20260504001538 22 328 4.8 19.3 0.00 0.05 0.00 68 1015.7
20260504000038 23 0 3.2 12.9 0.00 0.05 0.00 68 1015.5
20260503234540 23 320 4.8 16.1 0.00 0.05 0.00 67 1015.6
20260503233035 23 13 4.8 12.9 0.00 0.05 0.00 66 1015.6
20260503231534 24 77 3.2 11.3 0.00 0.05 0.00 66 1015.6
20260503230037 24 336 6.4 19.3 0.00 0.05 0.00 64 1015.5
20260503224535 25 117 4.8 19.3 0.00 0.05 0.00 65 1015.5
20260503223036 25 48 4.8 14.5 0.00 0.05 0.00 63 1015.5
20260503221533 25 273 4.8 17.7 0.00 0.05 0.00 64 1015.6
20260503220040 25 304 3.2 14.5 0.00 0.05 0.00 62 1015.5